Zurück zum Katalog

GLOBALSTAR M019

AktivKommunikationLEO
NORAD 25677·PAYLOAD·🇺🇸 United States

Gestartet Apr 15, 1999 von Baikonur Cosmodrome

Loading…

Nächste Überflüge (nächste 24 Stunden)

TLE

AktuellSource: Space-Track

Epoche: Sep 14, 2026, 09:41 UTC

1 25677U 99019B   26257.40395432  .00000028  00000-0  12317-2 0  9993
2 25677  51.9857 252.9690 0001416 139.4620   9.0874 12.13888641240303

Verfolge GLOBALSTAR M019 in Echtzeit mit AllMySat

Download on the App Store